Погода в Шилке

Погода в Шилке : погода сейчас, прогноз погоды и архив. Всё, что Вы хотите узнать о погоде в Шилке!

Хотите узнать прогноз погоды в Шилке? Тогда Вам сюда: Погода в Шилке

Поиск расширенной информации на нашем сайте:

Другие новости

Новости СМИ2

Главная страница сайта

Новости сайта

03.07.2017

Напоминаем, что на нашем специализированном сайте Метеоцентр.Азия вы можете получить высокодетализированные автоматические прогнозы погоды по пунктам России, СНГ и мира в авиационном формате (включающие направление и скорость ветра, видимость, явления погоды, количество и форму облачности, нижнюю и верхнюю границу облачности).


Погода в Шилке - сегодня

Время (UTC), дата Ветер
(°,м/с) 
Видим.   Явления Облачность Т
(°С)
Тd
(°С)
f(%) Тe
(°С)
Pmin
(гПа)
dP
(гПа)
Po
(мм)
O2
(г/м3)
Тmin Tmax R s Состояние
почвы
15 17.02.18 250 (З) 50000 м    5/0 верхняя 
[Ci fib]
-21.6 -25.8 69 -27  1029.7  0.2  713  313           
18 17.02.18 260 (З) н/о    н/о 
-22.8 -26.6 71 -27  1030.2  713  315           
21 17.02.18 270 (З) 50000 м    3/0 верхняя 
[Ci fib]
-21.7 -25.6 71 -27  1029.9  0.1  713  314           
00 18.02.18 260 (З) 20000 м    1/0 средняя 
[Ac lent]
-22.5 -25.6 76 -28  1031.5  1.2  714  315  -23.7      равномерный
сухой снег
100% 
03 18.02.18 220 (ЮЗ) 20000 м    1/0 средняя 
[Ac lent]
-15.7 -22.1 58 -21  1029.5  0.2  714  307           
06 18.02.18 210 (ЮЗ) 20000 м    5/0 средняя, верхняя 
[Ac lent|Ci fib]
-11.6 -21 46 -17  1026.2  -1.9  712  301           
09 18.02.18 250 (З) 20000 м    3/0 средняя 
[Ac lent]
-11.1 -22 40 -14  1024.9  -1.1  712  300           
15 18.02.18 250 (З) 50000 м    6/0 верхняя 
[Ci sp]
-17.8 -24.3 57 -23  1027.9  -0.2  712  309           
18 18.02.18 230 (ЮЗ) 50000 м    ясно 
-19 -24.1 64 -24  1028.3  712  310           
21 18.02.18 280 (З) 50000 м    ясно 
-18.2 -24 60 -23  1027.8  -0.2  712  309           
03 19.02.18 220 (ЮЗ) 20000 м    ясно 
-15.6 -23.3 52 -16  1028.3  0.4  713  306           
06 19.02.18 220 (ЮЗ) 20000 м    1/0 верхняя 
[Ci fib]
-12.5 -23.7 39 -15  1025.6  -1.6  712  302           
09 19.02.18 190 (Ю) 20000 м    3/0 верхняя 
[Ci fib]
-11.3 -24.7 32 -11  1024.4  -0.8  711  300           
15 19.02.18 240 (ЮЗ) 50000 м    5/0 средняя, верхняя 
[Ac trans|Ci fib]
-18.9 -26.5 51 -24  1027.5  0.1  712  310           
18 19.02.18 280 (З) 50000 м    1/0 верхняя 
[Ci fib]
-21.8 -27.2 62 -28  1028.1  -0.3  712  313           
21 19.02.18 240 (ЮЗ) н/о    н/о 
-21.1 -26.1 64 -26  1027.8  0.1  711  312           
03 20.02.18 220 (ЮЗ) 20000 м    1/0 верхняя 
[Ci fib]
-16.4 -23 57 -21  1027.1  0.2  712  307           
06 20.02.18 220 (ЮЗ) 20000 м    1/0 верхняя 
[Ci fib]
-12 -21.7 44 -18  1023.2  -2.4  710  301           
09 20.02.18 210 (ЮЗ) 20000 м    6/0 средняя, верхняя 
[Ac trans|Ci fib]
-11.6 -21.6 43 -15  1022.1  -0.9  710  300           
15 20.02.18 230 (ЮЗ) 50000 м    4/0 средняя, верхняя 
[Ac trans|Ci fib]
-16.3 -22.2 60 -20  1021  -1.7  708  305           
18 20.02.18 270 (З) 50000 м    9/0 средняя, верхняя 
[Ac As|Ci sp]
-16.5 -21 68 -20  1019.5  -1.4  707  305           
21 20.02.18 280 (З) 50000 м    8/0 средняя, верхняя 
[Ac As|Ci sp]
-18.4 -20.6 83 -21  1019  -1.1  706  306           
00 21.02.18 260 (З) 20000 м    4/0 средняя, верхняя 
[Ac As|Ci sp]
-21 -23.1 83 -24  1019.6  -0.1  706  310  -22.1      равномерный
сухой снег
100% 
03 21.02.18 тихо ()   20000 м    3/0 верхняя 
[Ci sp]
-13.3 -19 62 -13  1017.4  0.1  706  300           
06 21.02.18 310 (СЗ) 20000 м  слаб. снег  10/0 средняя 
[Ac As]
-11.4 -22.4 40 -16  1015.7  -1.1  705  298           
Время (UTC), дата Ветер
(°,м/с) 
Видим.   Явления Облачность Т
(°С)
Тd
(°С)
f(%) Тe
(°С)
Pmin
(гПа)
dP
(гПа)
Po
(мм)
O2
(г/м3)
Тmin Tmax R s Состояние
почвы

Для получения пояснительной информации подведите курсор к названию столбца.

ПОГОДА в Шилке - архив

Всё, что Вы хотите узнать о погоде в Шилке - удобно и подробно!

Выберите нужную дату (начиная с 1 января 2015* года) и нажмите кнопку "Найти".
Будут отображены архивные сводки погоды по пункту Шилка, начиная с указанной даты.


Отображать данные в формате CSV (для использования в таблицах Excel)


Внимание! Наш архив погоды предназначен исключительно для личного некоммерческого использования в познавательных целях. Если Вам необходимы официальные справки о состоянии погоды (для производственных, юридических, коммерческих и т.п. целей), обращайтесь в органы Росгидромета.

*Примечание: данная дата относится к архиву по метеостанциям СССР (Россия, СНГ, Балтия).
Архив по метеостанциям Зарубежной Европы и Азии (кроме Китая) хранится 10 дней, по другим регионам земного шара (Китай, Африка, Америка, Австралия, Океания) - 1 день.

Шилка - район местоположения метеостанции


Название, широта, долгота, высота метеостанции:
Шилка 51.9°ш. 116°д. 597 м над ур. моря [Российская Федерация]

Дополнительная информация

В oтличие oт бoльшинства пoгoдных сайтoв мы публикуем пoдрoбную метеoинфoрмацию в детальнoм прoфессиoнальнoм фoрмате.

Характеристики температуры и влажнoсти вoздуха измеряются на высoте 2 м в тени вдали oт зданий и деревьев.
Скoрoсть ветра измеряется на высoте 10 м (на урoвне рoста челoвека скoрoсть ветра ниже в 1.5-2 раза). Если метеoстанция нахoдится в гoрoде или в лесу, тo скoрoсть ветра занижена на 2-4 м/с пo сравнению с oткрытым местoм. Скoрoсть ветра над акватoриями крупных рек и oзёр, а также на вершинах хoлмoв на 2-5 м/с выше, чем в oбычных услoвиях.
Атмoсфернoе давление в разных тoчках местнoсти мoжет значительнo oтличаться oт давления на метеoстанции, в зависимoсти oт услoвий рельефа (при пoдъёме на 10 м давление пoнижается примернo на 1 мм рт.ст.).